,,,PA_Meas_PMT16A,,PR_Meas_QMR101_102,,RH_Meas_QMH101,,SR_Meas_QMS101,,TA_Meas_QMH101,,GenWind,,GenWind,
date,time,status,PA,status,PR,status,RH,status,SR,status,TA,status,DirAvg,status,SpdAvg,
2011-08-19, 00:00:04,VALID,1009.86,VALID,0.0,VALID,104.0,VALID,0.106,VALID,24.16,VALID,191.0,VALID,0.125,
2011-08-19, 00:01:04,VALID,1009.848,VALID,0.0,VALID,104.0,VALID,0.106,VALID,24.14,VALID,191.0,VALID,0.0,
2011-08-19, 00:02:04,VALID,1009.801,VALID,0.0,VALID,104.0,VALID,0.106,VALID,24.121,VALID,191.0,VALID,0.11,
2011-08-19, 00:03:04,VALID,1009.767,VALID,0.0,VALID,104.0,VALID,0.106,VALID,24.121,VALID,191.0,VALID,0.19,
2011-08-19, 00:04:04,VALID,1009.766,VALID,0.0,VALID,104.0,VALID,0.0,VALID,24.123,VALID,191.0,VALID,0.239,
2011-08-19, 00:05:04,VALID,1009.74,VALID,0.0,VALID,104.0,VALID,0.0,VALID,24.103,VALID,191.0,VALID,0.109,
2011-08-19, 00:06:04,VALID,1009.698,VALID,0.0,VALID,104.0,VALID,0.0,VALID,24.084,VALID,191.0,VALID,0.111,
2011-08-19, 00:07:04,VALID,1009.735,VALID,0.0,VALID,104.0,VALID,0.0,VALID,24.066,VALID,191.0,VALID,0.129,
2011-08-19, 00:08:04,VALID,1009.743,VALID,0.0,VALID,104.0,VALID,0.0,VALID,24.047,VALID,191.0,VALID,0.152,
2011-08-19, 00:09:04,VALID,1009.752,VALID,0.0,VALID,104.0,VALID,0.0,VALID,24.045,VALID,191.0,VALID,0.0,
2011-08-19, 00:10:04,VALID,1009.803,VALID,0.0,VALID,104.0,VALID,0.0,VALID,24.045,VALID,191.0,VALID,0.0,
2011-08-19, 00:11:04,VALID,1009.828,VALID,0.0,VALID,104.0,VALID,0.0,VALID,24.045,VALID,191.0,VALID,0.0,
2011-08-19, 00:12:04,VALID,1009.859,VALID,0.0,VALID,104.0,VALID,0.0,VALID,24.045,VALID,191.0,VALID,0.111,
2011-08-19, 00:13:04,VALID,1009.827,VALID,0.0,VALID,104.0,VALID,0.0,VALID,24.064,VALID,191.0,VALID,0.152,
2011-08-19, 00:14:04,VALID,1009.824,VALID,0.0,VALID,104.0,VALID,0.0,VALID,24.084,VALID,191.0,VALID,0.313,
2011-08-19, 00:15:04,VALID,1009.803,VALID,0.0,VALID,104.0,VALID,0.0,VALID,24.103,VALID,191.0,VALID,0.397,
2011-08-19, 00:16:04,VALID,1009.803,VALID,0.0,VALID,104.0,VALID,0.0,VALID,24.103,VALID,191.0,VALID,0.487,
2011-08-19, 00:17:04,VALID,1009.784,VALID,0.0,VALID,104.0,VALID,0.0,VALID,24.123,VALID,191.0,VALID,0.58,
2011-08-19, 00:18:04,VALID,1009.743,VALID,0.0,VALID,104.0,VALID,0.0,VALID,24.123,VALID,191.0,VALID,0.789,
2011-08-19, 00:19:04,VALID,1009.712,VALID,0.0,VALID,104.0,VALID,0.0,VALID,24.103,VALID,194.0,VALID,0.611,
2011-08-19, 00:20:04,VALID,1009.697,VALID,0.0,VALID,104.0,VALID,0.0,VALID,24.084,VALID,193.0,VALID,0.423,
2011-08-19, 00:21:04,VALID,1009.682,VALID,0.0,VALID,104.0,VALID,0.0,VALID,24.064,VALID,189.0,VALID,0.389,
2011-08-19, 00:22:04,VALID,1009.667,VALID,0.0,VALID,104.0,VALID,0.0,VALID,24.064,VALID,189.0,VALID,0.243,
2011-08-19, 00:23:04,VALID,1009.67,VALID,0.0,VALID,104.0,VALID,0.0,VALID,24.045,VALID,189.0,VALID,0.0,
2011-08-19, 00:24:04,VALID,1009.671,VALID,0.0,VALID,104.0,VALID,0.0,VALID,24.047,VALID,189.0,VALID,0.0,
2011-08-19, 00:25:04,VALID,1009.668,VALID,0.0,VALID,104.0,VALID,0.0,VALID,24.006,VALID,189.0,VALID,0.08,
2011-08-19, 00:26:04,VALID,1009.668,VALID,0.0,VALID,104.0,VALID,0.0,VALID,24.025,VALID,189.0,VALID,0.289,
2011-08-19, 00:27:04,VALID,1009.71,VALID,0.0,VALID,104.0,VALID,0.0,VALID,24.025,VALID,189.0,VALID,0.326,
2011-08-19, 00:28:04,VALID,1009.71,VALID,0.0,VALID,104.0,VALID,0.0,VALID,24.047,VALID,189.0,VALID,0.246,
2011-08-19, 00:29:04,VALID,1009.677,VALID,0.0,VALID,104.0,VALID,0.0,VALID,24.025,VALID,189.0,VALID,0.28,
2011-08-19, 00:30:04,VALID,1009.662,VALID,0.0,VALID,104.0,VALID,0.0,VALID,24.025,VALID,189.0,VALID,0.246,
2011-08-19, 00:31:04,VALID,1009.64,VALID,0.0,VALID,104.0,VALID,0.0,VALID,24.025,VALID,189.0,VALID,0.238,
2011-08-19, 00:32:04,VALID,1009.618,VALID,0.0,VALID,104.0,VALID,0.0,VALID,24.006,VALID,189.0,VALID,0.376,
2011-08-19, 00:33:04,VALID,1009.576,VALID,0.0,VALID,104.0,VALID,0.0,VALID,23.986,VALID,189.0,VALID,0.344,
2011-08-19, 00:34:04,VALID,1009.52,VALID,0.0,VALID,104.0,VALID,0.0,VALID,23.986,VALID,189.0,VALID,0.423,
2011-08-19, 00:35:04,VALID,1009.516,VALID,0.0,VALID,104.0,VALID,0.0,VALID,23.967,VALID,225.0,VALID,0.409,
2011-08-19, 00:36:04,VALID,1009.514,VALID,0.0,VALID,104.0,VALID,0.0,VALID,23.967,VALID,225.0,VALID,0.361,
2011-08-19, 00:37:04,VALID,1009.477,VALID,0.0,VALID,104.0,VALID,0.0,VALID,23.947,VALID,225.0,VALID,0.339,
2011-08-19, 00:38:04,VALID,1009.495,VALID,0.0,VALID,104.0,VALID,0.0,VALID,23.928,VALID,225.0,VALID,0.361,
2011-08-19, 00:39:04,VALID,1009.441,VALID,0.0,VALID,104.0,VALID,0.0,VALID,23.889,VALID,225.0,VALID,0.319,
2011-08-19, 00:40:04,VALID,1009.447,VALID,0.0,VALID,104.0,VALID,0.0,VALID,23.85,VALID,225.0,VALID,0.295,
2011-08-19, 00:41:04,VALID,1009.375,VALID,0.0,VALID,104.0,VALID,0.0,VALID,23.83,VALID,225.0,VALID,0.129,
2011-08-19, 00:42:04,VALID,1009.35,VALID,0.0,VALID,104.0,VALID,0.0,VALID,23.813,VALID,225.0,VALID,0.131,
2011-08-19, 00:43:04,VALID,1009.357,VALID,0.0,VALID,104.0,VALID,0.0,VALID,23.733,VALID,225.0,VALID,0.004,
2011-08-19, 00:44:04,VALID,1009.309,VALID,0.0,VALID,104.0,VALID,0.0,VALID,23.675,VALID,225.0,VALID,0.2,
2011-08-19, 00:45:04,VALID,1009.322,VALID,0.0,VALID,104.0,VALID,0.0,VALID,23.655,VALID,225.0,VALID,0.0,
2011-08-19, 00:46:04,VALID,1009.316,VALID,0.0,VALID,104.0,VALID,0.0,VALID,23.636,VALID,225.0,VALID,0.0,
2011-08-19, 00:47:04,VALID,1009.33,VALID,0.0,VALID,104.0,VALID,0.0,VALID,23.636,VALID,225.0,VALID,0.0,
2011-08-19, 00:48:04,VALID,1009.351,VALID,0.0,VALID,104.0,VALID,0.0,VALID,23.616,VALID,225.0,VALID,0.0,
2011-08-19, 00:49:04,VALID,1009.347,VALID,0.0,VALID,104.0,VALID,0.0,VALID,23.595,VALID,225.0,VALID,0.0,
2011-08-19, 00:50:04,VALID,1009.348,VALID,0.0,VALID,104.0,VALID,0.0,VALID,23.597,VALID,225.0,VALID,0.0,
2011-08-19, 00:51:04,VALID,1009.367,VALID,0.0,VALID,104.0,VALID,0.0,VALID,23.597,VALID,225.0,VALID,0.215,
2011-08-19, 00:52:04,VALID,1009.307,VALID,0.0,VALID,104.0,VALID,0.0,VALID,23.616,VALID,225.0,VALID,0.346,
2011-08-19, 00:53:04,VALID,1009.323,VALID,0.0,VALID,104.0,VALID,0.0,VALID,23.636,VALID,225.0,VALID,0.416,
2011-08-19, 00:54:04,VALID,1009.353,VALID,0.0,VALID,104.0,VALID,0.0,VALID,23.657,VALID,225.0,VALID,0.386,
2011-08-19, 00:55:04,VALID,1009.325,VALID,0.0,VALID,104.0,VALID,0.0,VALID,23.616,VALID,225.0,VALID,0.433,
2011-08-19, 00:56:04,VALID,1009.351,VALID,0.0,VALID,104.0,VALID,0.0,VALID,23.597,VALID,253.0,VALID,0.561,
2011-08-19, 00:57:04,VALID,1009.345,VALID,0.0,VALID,104.0,VALID,0.0,VALID,23.577,VALID,286.0,VALID,0.429,
2011-08-19, 00:58:04,VALID,1009.363,VALID,0.0,VALID,104.0,VALID,0.0,VALID,23.538,VALID,286.0,VALID,0.387,
2011-08-19, 00:59:04,VALID,1009.344,VALID,0.0,VALID,104.0,VALID,0.0,VALID,23.538,VALID,286.0,VALID,0.502,
2011-08-19, 01:00:04,VALID,1009.362,VALID,0.0,VALID,104.0,VALID,0.0,VALID,23.54,VALID,286.0,VALID,0.248,
2011-08-19, 01:01:04,VALID,1009.355,VALID,0.0,VALID,104.0,VALID,0.0,VALID,23.48,VALID,286.0,VALID,0.399,
2011-08-19, 01:02:04,VALID,1009.358,VALID,0.0,VALID,104.0,VALID,0.0,VALID,23.46,VALID,286.0,VALID,0.351,
2011-08-19, 01:03:04,VALID,1009.339,VALID,0.0,VALID,104.0,VALID,0.0,VALID,23.46,VALID,286.0,VALID,0.27,
2011-08-19, 01:04:04,VALID,1009.37,VALID,0.0,VALID,104.0,VALID,0.0,VALID,23.48,VALID,286.0,VALID,0.262,
2011-08-19, 01:05:04,VALID,1009.381,VALID,0.0,VALID,104.0,VALID,0.106,VALID,23.439,VALID,286.0,VALID,0.263,
2011-08-19, 01:06:04,VALID,1009.401,VALID,0.0,VALID,104.0,VALID,0.106,VALID,23.439,VALID,286.0,VALID,0.012,
2011-08-19, 01:07:04,VALID,1009.414,VALID,0.0,VALID,104.0,VALID,0.0,VALID,23.441,VALID,286.0,VALID,0.0,
2011-08-19, 01:08:04,VALID,1009.397,VALID,0.0,VALID,104.0,VALID,0.0,VALID,23.441,VALID,286.0,VALID,0.0,
2011-08-19, 01:09:04,VALID,1009.434,VALID,0.0,VALID,104.0,VALID,0.0,VALID,23.439,VALID,286.0,VALID,0.0,
2011-08-19, 01:10:04,VALID,1009.443,VALID,0.0,VALID,104.0,VALID,0.0,VALID,23.46,VALID,286.0,VALID,0.0,
2011-08-19, 01:11:04,VALID,1009.404,VALID,0.0,VALID,104.0,VALID,0.106,VALID,23.48,VALID,286.0,VALID,0.0,
2011-08-19, 01:12:04,VALID,1009.366,VALID,0.0,VALID,104.0,VALID,0.0,VALID,23.48,VALID,286.0,VALID,0.0,
2011-08-19, 01:13:04,VALID,1009.364,VALID,0.0,VALID,104.0,VALID,0.0,VALID,23.48,VALID,286.0,VALID,0.0,
2011-08-19, 01:14:04,VALID,1009.283,VALID,0.0,VALID,104.0,VALID,0.0,VALID,23.48,VALID,286.0,VALID,0.0,
2011-08-19, 01:15:04,VALID,1009.258,VALID,0.0,VALID,104.0,VALID,0.0,VALID,23.48,VALID,286.0,VALID,0.0,
2011-08-19, 01:16:04,VALID,1009.202,VALID,0.0,VALID,104.0,VALID,0.0,VALID,23.499,VALID,286.0,VALID,0.0,
2011-08-19, 01:17:04,VALID,1009.214,VALID,0.0,VALID,104.0,VALID,0.0,VALID,23.499,VALID,286.0,VALID,0.0,
2011-08-19, 01:18:04,VALID,1009.218,VALID,0.0,VALID,104.0,VALID,0.0,VALID,23.499,VALID,286.0,VALID,0.0,
2011-08-19, 01:19:04,VALID,1009.19,VALID,0.0,VALID,104.0,VALID,0.0,VALID,23.499,VALID,286.0,VALID,0.0,
2011-08-19, 01:20:04,VALID,1009.173,VALID,0.0,VALID,104.0,VALID,0.0,VALID,23.478,VALID,286.0,VALID,0.0,
2011-08-19, 01:21:04,VALID,1009.15,VALID,0.0,VALID,104.0,VALID,0.0,VALID,23.499,VALID,286.0,VALID,0.0,
2011-08-19, 01:22:04,VALID,1009.152,VALID,0.0,VALID,104.0,VALID,0.0,VALID,23.48,VALID,286.0,VALID,0.0,
2011-08-19, 01:23:04,VALID,1009.131,VALID,0.0,VALID,104.0,VALID,0.0,VALID,23.48,VALID,286.0,VALID,0.0,
2011-08-19, 01:24:04,VALID,1009.092,VALID,0.0,VALID,104.0,VALID,0.106,VALID,23.48,VALID,286.0,VALID,0.0,
2011-08-19, 01:25:04,VALID,1009.096,VALID,0.0,VALID,104.0,VALID,0.0,VALID,23.48,VALID,286.0,VALID,0.0,
2011-08-19, 01:26:04,VALID,1009.078,VALID,0.0,VALID,104.0,VALID,0.0,VALID,23.48,VALID,286.0,VALID,0.0,
2011-08-19, 01:27:04,VALID,1009.068,VALID,0.0,VALID,104.0,VALID,0.0,VALID,23.46,VALID,286.0,VALID,0.0,
2011-08-19, 01:28:04,VALID,1009.039,VALID,0.0,VALID,104.0,VALID,0.0,VALID,23.441,VALID,286.0,VALID,0.0,
2011-08-19, 01:29:04,VALID,1009.051,VALID,0.0,VALID,104.0,VALID,0.0,VALID,23.421,VALID,286.0,VALID,0.0,
2011-08-19, 01:30:04,VALID,1009.01,VALID,0.0,VALID,104.0,VALID,0.0,VALID,23.402,VALID,286.0,VALID,0.0,
2011-08-19, 01:31:04,VALID,1008.993,VALID,0.0,VALID,104.0,VALID,0.0,VALID,23.402,VALID,286.0,VALID,0.0,
2011-08-19, 01:32:04,VALID,1008.972,VALID,0.0,VALID,104.0,VALID,0.0,VALID,23.382,VALID,286.0,VALID,0.0,
2011-08-19, 01:33:04,VALID,1008.976,VALID,0.0,VALID,104.0,VALID,0.0,VALID,23.421,VALID,286.0,VALID,0.0,
2011-08-19, 01:34:04,VALID,1008.945,VALID,0.0,VALID,104.0,VALID,0.0,VALID,23.46,VALID,286.0,VALID,0.389,
2011-08-19, 01:35:04,VALID,1008.946,VALID,0.0,VALID,104.0,VALID,0.106,VALID,23.458,VALID,286.0,VALID,0.412,
2011-08-19, 01:36:04,VALID,1008.955,VALID,0.0,VALID,104.0,VALID,0.0,VALID,23.478,VALID,243.0,VALID,0.448,
2011-08-19, 01:37:04,VALID,1008.902,VALID,0.0,VALID,104.0,VALID,0.0,VALID,23.519,VALID,232.0,VALID,0.551,
2011-08-19, 01:38:04,VALID,1008.896,VALID,0.0,VALID,104.0,VALID,0.0,VALID,23.499,VALID,229.0,VALID,0.558,
2011-08-19, 01:39:04,VALID,1008.886,VALID,0.0,VALID,104.0,VALID,0.0,VALID,23.46,VALID,203.0,VALID,0.504,
2011-08-19, 01:40:04,VALID,1008.842,VALID,0.0,VALID,104.0,VALID,0.0,VALID,23.442,VALID,140.0,VALID,0.906,
2011-08-19, 01:41:04,VALID,1008.847,VALID,0.0,VALID,104.0,VALID,0.0,VALID,23.421,VALID,124.0,VALID,0.932,
2011-08-19, 01:42:04,VALID,1008.808,VALID,0.0,VALID,104.0,VALID,0.0,VALID,23.441,VALID,124.0,VALID,0.832,
2011-08-19, 01:43:04,VALID,1008.797,VALID,0.0,VALID,104.0,VALID,0.0,VALID,23.441,VALID,123.0,VALID,0.807,
2011-08-19, 01:44:04,VALID,1008.792,VALID,0.0,VALID,104.0,VALID,0.0,VALID,23.46,VALID,123.0,VALID,0.855,
2011-08-19, 01:45:04,VALID,1008.808,VALID,0.0,VALID,104.0,VALID,0.0,VALID,23.46,VALID,117.0,VALID,0.839,
2011-08-19, 01:46:04,VALID,1008.841,VALID,0.0,VALID,104.0,VALID,0.0,VALID,23.48,VALID,115.0,VALID,0.601,
2011-08-19, 01:47:04,VALID,1008.878,VALID,0.0,VALID,104.0,VALID,0.0,VALID,23.48,VALID,115.0,VALID,0.674,
2011-08-19, 01:48:04,VALID,1008.861,VALID,0.0,VALID,104.0,VALID,0.0,VALID,23.497,VALID,116.0,VALID,0.655,
2011-08-19, 01:49:04,VALID,1008.885,VALID,0.0,VALID,104.0,VALID,0.0,VALID,23.519,VALID,116.0,VALID,0.471,
2011-08-19, 01:50:04,VALID,1008.874,VALID,0.0,VALID,104.0,VALID,0.0,VALID,23.519,VALID,148.0,VALID,0.499,
2011-08-19, 01:51:04,VALID,1008.879,VALID,0.0,VALID,104.0,VALID,0.0,VALID,23.558,VALID,153.0,VALID,0.827,
2011-08-19, 01:52:04,VALID,1008.864,VALID,0.0,VALID,104.0,VALID,0.0,VALID,23.577,VALID,150.0,VALID,0.568,
2011-08-19, 01:53:04,VALID,1008.877,VALID,0.0,VALID,104.0,VALID,0.0,VALID,23.597,VALID,145.0,VALID,0.792,
2011-08-19, 01:54:04,VALID,1008.872,VALID,0.0,VALID,104.0,VALID,0.0,VALID,23.577,VALID,145.0,VALID,0.496,
2011-08-19, 01:55:04,VALID,1008.895,VALID,0.0,VALID,104.0,VALID,0.0,VALID,23.616,VALID,155.0,VALID,0.709,
2011-08-19, 01:56:04,VALID,1008.89,VALID,0.0,VALID,104.0,VALID,0.0,VALID,23.616,VALID,145.0,VALID,0.757,
2011-08-19, 01:57:04,VALID,1008.857,VALID,0.0,VALID,104.0,VALID,0.0,VALID,23.597,VALID,142.0,VALID,0.856,
2011-08-19, 01:58:04,VALID,1008.846,VALID,0.0,VALID,104.0,VALID,0.0,VALID,23.616,VALID,150.0,VALID,0.994,
2011-08-19, 01:59:04,VALID,1008.836,VALID,0.0,VALID,104.0,VALID,0.0,VALID,23.655,VALID,141.0,VALID,0.711,
2011-08-19, 02:00:04,VALID,1008.814,VALID,0.0,VALID,104.0,VALID,0.0,VALID,23.655,VALID,150.0,VALID,1.061,
2011-08-19, 02:01:04,VALID,1008.804,VALID,0.0,VALID,104.0,VALID,0.0,VALID,23.675,VALID,138.0,VALID,1.012,
2011-08-19, 02:02:04,VALID,1008.768,VALID,0.0,VALID,104.0,VALID,0.0,VALID,23.675,VALID,143.0,VALID,0.609,
2011-08-19, 02:03:04,VALID,1008.78,VALID,0.0,VALID,104.0,VALID,0.0,VALID,23.675,VALID,128.0,VALID,0.635,
2011-08-19, 02:04:04,VALID,1008.767,VALID,0.0,VALID,104.0,VALID,0.106,VALID,23.694,VALID,129.0,VALID,0.746,
2011-08-19, 02:05:04,VALID,1008.771,VALID,0.0,VALID,104.0,VALID,0.0,VALID,23.694,VALID,134.0,VALID,1.066,
2011-08-19, 02:06:04,VALID,1008.767,VALID,0.0,VALID,104.0,VALID,0.106,VALID,23.694,VALID,143.0,VALID,0.634,
2011-08-19, 02:07:04,VALID,1008.78,VALID,0.0,VALID,104.0,VALID,0.0,VALID,23.694,VALID,158.0,VALID,0.748,
2011-08-19, 02:08:04,VALID,1008.746,VALID,0.0,VALID,104.0,VALID,0.106,VALID,23.675,VALID,149.0,VALID,0.837,
2011-08-19, 02:09:04,VALID,1008.733,VALID,0.0,VALID,104.0,VALID,0.0,VALID,23.696,VALID,143.0,VALID,1.354,
2011-08-19, 02:10:04,VALID,1008.721,VALID,0.0,VALID,104.0,VALID,0.0,VALID,23.675,VALID,136.0,VALID,0.873,
2011-08-19, 02:11:04,VALID,1008.713,VALID,0.0,VALID,104.0,VALID,0.0,VALID,23.675,VALID,142.0,VALID,0.875,
2011-08-19, 02:12:04,VALID,1008.693,VALID,0.0,VALID,104.0,VALID,0.106,VALID,23.694,VALID,149.0,VALID,0.767,
2011-08-19, 02:13:04,VALID,1008.722,VALID,0.0,VALID,104.0,VALID,0.0,VALID,23.694,VALID,140.0,VALID,0.925,
2011-08-19, 02:14:04,VALID,1008.698,VALID,0.0,VALID,104.0,VALID,0.106,VALID,23.713,VALID,141.0,VALID,0.666,
2011-08-19, 02:15:04,VALID,1008.683,VALID,0.0,VALID,104.0,VALID,0.0,VALID,23.713,VALID,142.0,VALID,0.536,
2011-08-19, 02:16:04,VALID,1008.699,VALID,0.0,VALID,104.0,VALID,0.0,VALID,23.694,VALID,154.0,VALID,0.661,
2011-08-19, 02:17:04,VALID,1008.726,VALID,0.0,VALID,104.0,VALID,0.0,VALID,23.713,VALID,152.0,VALID,0.627,
2011-08-19, 02:18:04,VALID,1008.74,VALID,0.0,VALID,104.0,VALID,0.106,VALID,23.713,VALID,154.0,VALID,0.825,
2011-08-19, 02:19:04,VALID,1008.745,VALID,0.0,VALID,104.0,VALID,0.0,VALID,23.735,VALID,180.0,VALID,0.743,
2011-08-19, 02:20:04,VALID,1008.737,VALID,0.0,VALID,104.0,VALID,0.0,VALID,23.733,VALID,168.0,VALID,0.512,
2011-08-19, 02:21:04,VALID,1008.789,VALID,0.0,VALID,104.0,VALID,0.0,VALID,23.713,VALID,155.0,VALID,0.647,
2011-08-19, 02:22:04,VALID,1008.768,VALID,0.0,VALID,104.0,VALID,0.106,VALID,23.715,VALID,144.0,VALID,0.82,
2011-08-19, 02:23:04,VALID,1008.76,VALID,0.0,VALID,104.0,VALID,0.0,VALID,23.694,VALID,146.0,VALID,0.562,
2011-08-19, 02:24:04,VALID,1008.738,VALID,0.0,VALID,104.0,VALID,0.106,VALID,23.694,VALID,157.0,VALID,0.636,
2011-08-19, 02:25:04,VALID,1008.729,VALID,0.0,VALID,104.0,VALID,0.0,VALID,23.694,VALID,158.0,VALID,0.621,
2011-08-19, 02:26:04,VALID,1008.707,VALID,0.0,VALID,104.0,VALID,0.0,VALID,23.675,VALID,158.0,VALID,0.356,
2011-08-19, 02:27:04,VALID,1008.708,VALID,0.0,VALID,104.0,VALID,0.0,VALID,23.675,VALID,158.0,VALID,0.187,
2011-08-19, 02:28:04,VALID,1008.682,VALID,0.0,VALID,104.0,VALID,0.0,VALID,23.675,VALID,158.0,VALID,0.286,
2011-08-19, 02:29:04,VALID,1008.7,VALID,0.0,VALID,104.0,VALID,0.0,VALID,23.675,VALID,158.0,VALID,0.436,
2011-08-19, 02:30:04,VALID,1008.707,VALID,0.0,VALID,104.0,VALID,0.0,VALID,23.675,VALID,159.0,VALID,0.598,
2011-08-19, 02:31:04,VALID,1008.72,VALID,0.0,VALID,104.0,VALID,0.0,VALID,23.655,VALID,183.0,VALID,0.689,
2011-08-19, 02:32:04,VALID,1008.711,VALID,0.0,VALID,104.0,VALID,0.0,VALID,23.655,VALID,182.0,VALID,0.632,
2011-08-19, 02:33:04,VALID,1008.716,VALID,0.0,VALID,103.992,VALID,0.106,VALID,23.675,VALID,179.0,VALID,0.617,
2011-08-19, 02:34:04,VALID,1008.758,VALID,0.0,VALID,103.863,VALID,0.0,VALID,23.634,VALID,155.0,VALID,0.529,
2011-08-19, 02:35:04,VALID,1008.734,VALID,0.0,VALID,103.779,VALID,0.0,VALID,23.655,VALID,155.0,VALID,0.584,
2011-08-19, 02:36:04,VALID,1008.73,VALID,0.0,VALID,103.687,VALID,0.0,VALID,23.636,VALID,154.0,VALID,0.505,
2011-08-19, 02:37:04,VALID,1008.744,VALID,0.0,VALID,103.603,VALID,0.0,VALID,23.655,VALID,154.0,VALID,0.317,
2011-08-19, 02:38:04,VALID,1008.716,VALID,0.0,VALID,103.512,VALID,0.0,VALID,23.655,VALID,154.0,VALID,0.32,
2011-08-19, 02:39:04,VALID,1008.722,VALID,0.0,VALID,103.489,VALID,0.106,VALID,23.655,VALID,154.0,VALID,0.164,
2011-08-19, 02:40:04,VALID,1008.744,VALID,0.0,VALID,103.474,VALID,0.0,VALID,23.655,VALID,154.0,VALID,0.381,
2011-08-19, 02:41:04,VALID,1008.776,VALID,0.0,VALID,103.459,VALID,0.0,VALID,23.636,VALID,154.0,VALID,0.38,
2011-08-19, 02:42:04,VALID,1008.781,VALID,0.0,VALID,103.443,VALID,0.106,VALID,23.634,VALID,154.0,VALID,0.485,
2011-08-19, 02:43:04,VALID,1008.761,VALID,0.0,VALID,103.474,VALID,0.0,VALID,23.655,VALID,146.0,VALID,0.667,
2011-08-19, 02:44:04,VALID,1008.796,VALID,0.0,VALID,103.497,VALID,0.0,VALID,23.636,VALID,143.0,VALID,0.595,
2011-08-19, 02:45:04,VALID,1008.81,VALID,0.0,VALID,103.481,VALID,0.106,VALID,23.636,VALID,131.0,VALID,0.796,
2011-08-19, 02:46:04,VALID,1008.79,VALID,0.0,VALID,103.497,VALID,0.106,VALID,23.636,VALID,127.0,VALID,0.672,
2011-08-19, 02:47:04,VALID,1008.824,VALID,0.0,VALID,103.52,VALID,0.106,VALID,23.636,VALID,107.0,VALID,0.646,
2011-08-19, 02:48:04,VALID,1008.776,VALID,0.0,VALID,103.542,VALID,0.106,VALID,23.616,VALID,108.0,VALID,0.508,
2011-08-19, 02:49:04,VALID,1008.764,VALID,0.0,VALID,103.535,VALID,0.106,VALID,23.616,VALID,110.0,VALID,0.706,
2011-08-19, 02:50:04,VALID,1008.748,VALID,0.0,VALID,103.481,VALID,0.0,VALID,23.616,VALID,108.0,VALID,0.621,
2011-08-19, 02:51:04,VALID,1008.755,VALID,0.0,VALID,103.451,VALID,0.0,VALID,23.597,VALID,95.0,VALID,0.785,
2011-08-19, 02:52:04,VALID,1008.755,VALID,0.0,VALID,103.375,VALID,0.0,VALID,23.614,VALID,102.0,VALID,0.863,
2011-08-19, 02:53:04,VALID,1008.801,VALID,0.0,VALID,103.291,VALID,0.106,VALID,23.636,VALID,97.0,VALID,1.066,
2011-08-19, 02:54:04,VALID,1008.807,VALID,0.0,VALID,103.161,VALID,0.0,VALID,23.655,VALID,91.0,VALID,0.778,
2011-08-19, 02:55:04,VALID,1008.83,VALID,0.0,VALID,103.032,VALID,0.0,VALID,23.655,VALID,111.0,VALID,0.721,
2011-08-19, 02:56:04,VALID,1008.847,VALID,0.0,VALID,102.963,VALID,0.0,VALID,23.655,VALID,111.0,VALID,0.452,
2011-08-19, 02:57:04,VALID,1008.808,VALID,0.0,VALID,102.955,VALID,0.106,VALID,23.655,VALID,111.0,VALID,0.839,
2011-08-19, 02:58:04,VALID,1008.832,VALID,0.0,VALID,102.917,VALID,0.0,VALID,23.636,VALID,111.0,VALID,0.594,
2011-08-19, 02:59:04,VALID,1008.806,VALID,0.0,VALID,102.978,VALID,0.106,VALID,23.655,VALID,112.0,VALID,0.677,
2011-08-19, 03:00:04,VALID,1008.773,VALID,0.0,VALID,103.039,VALID,0.0,VALID,23.616,VALID,112.0,VALID,0.561,
2011-08-19, 03:01:04,VALID,1008.773,VALID,0.0,VALID,103.161,VALID,0.0,VALID,23.597,VALID,112.0,VALID,0.961,
2011-08-19, 03:02:04,VALID,1008.746,VALID,0.0,VALID,103.26,VALID,0.106,VALID,23.575,VALID,113.0,VALID,0.657,
2011-08-19, 03:03:04,VALID,1008.735,VALID,0.0,VALID,103.337,VALID,0.0,VALID,23.558,VALID,120.0,VALID,0.616,
2011-08-19, 03:04:04,VALID,1008.734,VALID,0.0,VALID,103.359,VALID,0.106,VALID,23.536,VALID,100.0,VALID,0.448,
2011-08-19, 03:05:04,VALID,1008.718,VALID,0.0,VALID,103.42,VALID,0.0,VALID,23.54,VALID,133.0,VALID,0.76,
2011-08-19, 03:06:04,VALID,1008.711,VALID,0.0,VALID,103.466,VALID,0.0,VALID,23.499,VALID,131.0,VALID,0.589,
2011-08-19, 03:07:04,VALID,1008.731,VALID,0.0,VALID,103.474,VALID,0.0,VALID,23.499,VALID,143.0,VALID,0.846,
2011-08-19, 03:08:04,VALID,1008.732,VALID,0.0,VALID,103.497,VALID,0.0,VALID,23.48,VALID,138.0,VALID,0.804,
2011-08-19, 03:09:04,VALID,1008.735,VALID,0.0,VALID,103.558,VALID,0.0,VALID,23.46,VALID,135.0,VALID,0.671,
2011-08-19, 03:10:04,VALID,1008.776,VALID,0.0,VALID,103.52,VALID,0.0,VALID,23.46,VALID,143.0,VALID,0.86,
2011-08-19, 03:11:04,VALID,1008.782,VALID,0.0,VALID,103.581,VALID,0.0,VALID,23.441,VALID,142.0,VALID,0.587,
2011-08-19, 03:12:04,VALID,1008.836,VALID,0.0,VALID,103.626,VALID,0.0,VALID,23.441,VALID,149.0,VALID,0.736,
2011-08-19, 03:13:04,VALID,1008.856,VALID,0.0,VALID,103.664,VALID,0.106,VALID,23.441,VALID,187.0,VALID,1.039,
2011-08-19, 03:14:04,VALID,1008.932,VALID,0.0,VALID,103.642,VALID,0.0,VALID,23.441,VALID,184.0,VALID,0.697,
2011-08-19, 03:15:04,VALID,1008.963,VALID,0.0,VALID,103.626,VALID,0.106,VALID,23.441,VALID,184.0,VALID,0.846,
2011-08-19, 03:16:04,VALID,1008.977,VALID,0.0,VALID,103.596,VALID,0.0,VALID,23.441,VALID,183.0,VALID,0.95,
2011-08-19, 03:17:04,VALID,1009.006,VALID,0.0,VALID,103.573,VALID,0.0,VALID,23.46,VALID,183.0,VALID,0.67,
2011-08-19, 03:18:04,VALID,1008.997,VALID,0.0,VALID,103.512,VALID,0.0,VALID,23.441,VALID,183.0,VALID,0.411,
2011-08-19, 03:19:04,VALID,1009.006,VALID,0.0,VALID,103.512,VALID,0.0,VALID,23.46,VALID,183.0,VALID,0.608,
2011-08-19, 03:20:04,VALID,1009.048,VALID,0.0,VALID,103.512,VALID,0.0,VALID,23.48,VALID,182.0,VALID,0.448,
2011-08-19, 03:21:04,VALID,1009.015,VALID,0.0,VALID,103.489,VALID,0.0,VALID,23.46,VALID,181.0,VALID,0.958,
2011-08-19, 03:22:04,VALID,1009.042,VALID,0.0,VALID,103.436,VALID,0.0,VALID,23.46,VALID,180.0,VALID,0.383,
2011-08-19, 03:23:04,VALID,1009.005,VALID,0.0,VALID,103.398,VALID,0.0,VALID,23.421,VALID,180.0,VALID,0.328,
2011-08-19, 03:24:04,VALID,1009.031,VALID,0.0,VALID,103.375,VALID,0.0,VALID,23.4,VALID,126.0,VALID,0.32,
2011-08-19, 03:25:04,VALID,1009.012,VALID,0.0,VALID,103.436,VALID,0.0,VALID,23.421,VALID,155.0,VALID,0.556,
2011-08-19, 03:26:04,VALID,1008.988,VALID,0.0,VALID,103.436,VALID,0.0,VALID,23.402,VALID,167.0,VALID,0.592,
2011-08-19, 03:27:04,VALID,1008.983,VALID,0.0,VALID,103.443,VALID,0.0,VALID,23.382,VALID,166.0,VALID,0.482,
2011-08-19, 03:28:04,VALID,1008.983,VALID,0.0,VALID,103.535,VALID,0.0,VALID,23.382,VALID,172.0,VALID,0.609,
2011-08-19, 03:29:04,VALID,1008.969,VALID,0.0,VALID,103.542,VALID,0.0,VALID,23.382,VALID,181.0,VALID,0.839,
2011-08-19, 03:30:04,VALID,1009.011,VALID,0.0,VALID,103.542,VALID,0.0,VALID,23.421,VALID,174.0,VALID,0.944,
2011-08-19, 03:31:04,VALID,1008.996,VALID,0.0,VALID,103.39,VALID,0.0,VALID,23.441,VALID,177.0,VALID,1.064,
2011-08-19, 03:32:04,VALID,1008.996,VALID,0.0,VALID,103.146,VALID,0.0,VALID,23.441,VALID,167.0,VALID,1.091,
2011-08-19, 03:33:04,VALID,1008.984,VALID,0.0,VALID,102.986,VALID,0.106,VALID,23.46,VALID,165.0,VALID,0.613,
2011-08-19, 03:34:04,VALID,1008.979,VALID,0.0,VALID,102.849,VALID,0.0,VALID,23.481,VALID,152.0,VALID,1.114,
2011-08-19, 03:35:04,VALID,1008.931,VALID,0.0,VALID,102.711,VALID,0.0,VALID,23.46,VALID,167.0,VALID,0.733,
2011-08-19, 03:36:04,VALID,1008.944,VALID,0.0,VALID,102.597,VALID,0.0,VALID,23.48,VALID,166.0,VALID,0.647,
2011-08-19, 03:37:04,VALID,1008.913,VALID,0.0,VALID,102.582,VALID,0.0,VALID,23.48,VALID,162.0,VALID,0.588,
2011-08-19, 03:38:04,VALID,1008.91,VALID,0.0,VALID,102.627,VALID,0.0,VALID,23.46,VALID,150.0,VALID,0.549,
2011-08-19, 03:39:04,VALID,1008.924,VALID,0.0,VALID,102.658,VALID,0.0,VALID,23.462,VALID,150.0,VALID,0.389,
2011-08-19, 03:40:04,VALID,1008.895,VALID,0.0,VALID,102.688,VALID,0.0,VALID,23.441,VALID,150.0,VALID,0.179,
2011-08-19, 03:41:04,VALID,1008.888,VALID,0.0,VALID,102.727,VALID,0.0,VALID,23.442,VALID,150.0,VALID,0.329,